Home   Weather   Dallas   Past weeks

Flag for USA Past Weather in Dallas, Texas, USA — Yesterday and Last 2 Weeks

78 °F

Scattered clouds.

Feels Like: 79 °F
Forecast: 64 / 84 °F
Wind: 9 mph from Southwest

Location: Dallas Love Field

Current Time: Oct 28, 2016 at 11:13:00 AM

Latest Report: Oct 28, 2016 at 10:53 AM

Visibility: 10 mi

Pressure: 30.20 "Hg

Humidity: 52%

Dew Point: 59 °F

Location of DallasLocation

Past Weather in Dallas — Graph


Dallas Temperature Yesterday

Maximum temperature yesterday: 85 °F (at 1:53 PM)
Minimum temperature yesterday: 68 °F (at 4:53 AM)
Average temperature yesterday: 76 °F

High & Low Weather Summary for the Past Weeks

High91 °F (Oct 17, 3:53 PM)93% (Oct 15, 2:53 AM)30.29 "Hg (Oct 15, 2:53 AM)
Low53 °F (Oct 22, 6:53 AM)25% (Oct 22, 3:53 PM)29.67 "Hg (Oct 17, 5:53 PM)
Average74 °F63%30.05 "Hg
* Reported Oct 13 9:53 AM — Oct 28 9:53 AM, Dallas, Weather by CustomWeather, © 2016

Note: Actual official high and low records may vary slightly from our data, if they occured in-between our weather recording intervals... More about our weather records


Dallas Weather History for the Previous 24 Hours

Scroll right to see more
Time TempWeatherWind HumidityBarometerVisibility
9:53 AM
Fri, Oct 28
72 °FScattered clouds.3 mph61%30.21 "Hg10 mi
8:53 AM69 °FPassing clouds.5 mph68%30.19 "Hg10 mi
7:53 AM65 °FPassing clouds.7 mph78%30.17 "Hg10 mi
6:53 AM65 °FPassing clouds.5 mph76%30.16 "Hg10 mi
5:53 AM68 °FPassing clouds.No wind68%30.15 "Hg10 mi
4:53 AM69 °FClear.7 mph66%30.14 "Hg10 mi
3:53 AM70 °FClear.8 mph64%30.15 "Hg10 mi
2:53 AM70 °FClear.8 mph64%30.16 "Hg10 mi
1:53 AM72 °FClear.8 mph61%30.16 "Hg10 mi
12:53 AM71 °FClear.8 mph66%30.15 "Hg10 mi
11:53 PM
Thu, Oct 27
74 °FClear.9 mph62%30.16 "Hg10 mi
10:53 PM76 °FClear.14 mph58%30.16 "Hg10 mi
9:53 PM76 °FClear.13 mph58%30.15 "Hg10 mi
8:53 PM78 °FClear.13 mph52%30.14 "Hg10 mi
7:53 PM80 °FPassing clouds.10 mph47%30.13 "Hg10 mi
6:53 PM81 °FPassing clouds.12 mph51%30.11 "Hg10 mi
5:53 PM85 °FPassing clouds.12 mph45%30.11 "Hg10 mi
4:53 PM85 °FScattered clouds.9 mph45%30.11 "Hg10 mi
3:53 PM85 °FScattered clouds.9 mph46%30.11 "Hg10 mi
2:53 PM85 °FScattered clouds.10 mph46%30.13 "Hg10 mi
1:53 PM85 °FScattered clouds.7 mph46%30.16 "Hg10 mi
12:53 PM84 °FPassing clouds.5 mph51%30.19 "Hg10 mi
11:53 AM81 °FPassing clouds.5 mph56%30.20 "Hg10 mi
Weather by CustomWeather, © 2016

See weather overviewHow to use our weather pages